User: anonymous   Login
Location: Chiroubles
(46.1812°N, 4.6660°E)
Time: 11:38:14
(UTC+00:00)
Language:

Cosmos 2239 Rocket - Orbit

View from above orbital plane
View from above orbital plane
View from above satellite
View from above satellite

Ground track
Ground track

The orbit data is extracted from the following two-line orbital elements,

1 22591U 93020B   20304.80498771 +.00000045 +00000-0 +29975-4 0  9991
2 22591 082.9324 202.1371 0025398 162.5413 258.2367 13.77448192386033
Epoch (UTC): 30 October 2020 19:19:10
Eccentricity: 0.0025398
inclination: 82.9324°
perigee height: 954 km
apogee height: 991 km
right ascension of ascending node: 202.1371°
argument of perigee: 162.5413°
revolutions per day: 13.77448192
mean anomaly at epoch: 258.2367°
orbit number at epoch: 38603

The dashed part of the orbit path shows where the satellite is in the earth's shadow,  

DLR